sat.trackr.live / text

‹ back to catalog

STARLINK-1552

NORAD 46076 · 2020-055BB

PAYLOAD ACTIVE UNKNOWN

§ Identity

Operator
Country
US
Launch date
2020-08-07
Launch site
AFETR
Launch vehicle
Mass (kg)
RCS (m²)

Purposes: comms

External: N2YO · Heavens-Above · Gunter

§ Orbital elements

Epoch: 2026-05-25T03:49:42.298176Z

Period
94.01 min
Inclination
53.1600°
Eccentricity
0.0001098
Mean motion
15.31703606 rev/d
Perigee alt
470.0 km
Apogee alt
471.5 km
Semi-major
6,848.9 km
B*
1.1426e-5
RAAN
105.6203°
Arg perigee
92.2000°
Mean anomaly
267.9127°
Rev number
32,093

§ Raw data

STARLINK-15521 46076U 20055BB  26145.15951734 -.00000010  00000+0  11426-4 0  99972 46076  53.1600 105.6203 0001098  92.2000 267.9127 15.31703606320931

JSON: /api/v1/satellites/46076 · /tle

For live sub-satellite position, see the globe view (requires WebGL).

§ Visibility from observer

Set your observer location to see the next 7 days of passes ≥ 10°. The values pass through the URL so the page stays shareable.

No JS? Fill the form by hand. The geolocation button needs JavaScript.